Year,Month,Day,Hour,Minute,Value (Times are PST for insolation in W/m^2)
2005,05,30,00,00,0.00
2005,05,30,00,01,0.00
2005,05,30,00,02,0.00
2005,05,30,00,03,0.00
2005,05,30,00,04,0.00
2005,05,30,00,05,0.00
2005,05,30,00,06,0.00
2005,05,30,00,07,0.00
2005,05,30,00,08,0.00
2005,05,30,00,09,0.00
2005,05,30,00,10,0.00
2005,05,30,00,11,0.00
2005,05,30,00,13,0.00
2005,05,30,00,14,0.00
2005,05,30,00,15,0.00
2005,05,30,00,17,0.00
2005,05,30,00,18,0.00
2005,05,30,00,19,0.00
2005,05,30,00,30,0.00
2005,05,30,00,31,0.00
2005,05,30,00,32,0.00
2005,05,30,00,33,0.00
2005,05,30,00,34,0.00
2005,05,30,00,35,0.00
2005,05,30,00,36,0.00
2005,05,30,00,37,0.00
2005,05,30,00,38,0.00
2005,05,30,00,39,0.00
2005,05,30,00,40,0.00
2005,05,30,00,41,0.00
2005,05,30,00,42,0.00
2005,05,30,00,43,0.00
2005,05,30,00,44,0.00
2005,05,30,00,45,0.00
2005,05,30,00,46,0.00
2005,05,30,00,47,0.00
2005,05,30,00,48,0.00
2005,05,30,00,49,0.00
2005,05,30,00,50,0.00
2005,05,30,00,51,0.00
2005,05,30,00,52,0.00
2005,05,30,00,53,0.00
2005,05,30,00,54,0.00
2005,05,30,00,55,0.00
2005,05,30,00,56,0.00
2005,05,30,00,57,0.00
2005,05,30,00,58,0.00
2005,05,30,00,59,0.00
2005,05,30,01,00,0.00
2005,05,30,01,01,0.00
2005,05,30,01,02,0.00
2005,05,30,01,03,0.00
2005,05,30,01,04,0.00
2005,05,30,01,05,0.00
2005,05,30,01,06,0.00
2005,05,30,01,07,0.00
2005,05,30,01,08,0.00
2005,05,30,01,09,0.00
2005,05,30,01,10,0.00
2005,05,30,01,11,0.00
2005,05,30,01,12,0.00
2005,05,30,01,13,0.00
2005,05,30,01,14,0.00
2005,05,30,01,15,0.00
2005,05,30,01,16,0.00
2005,05,30,01,17,0.00
2005,05,30,01,18,0.00
2005,05,30,01,19,0.00
2005,05,30,01,20,0.00
2005,05,30,01,21,0.00
2005,05,30,01,22,0.00
2005,05,30,01,23,0.00
2005,05,30,01,24,0.00
2005,05,30,01,25,0.00
2005,05,30,01,26,0.00
2005,05,30,01,27,0.00
2005,05,30,01,28,0.00
2005,05,30,01,29,0.00
2005,05,30,01,30,0.00
2005,05,30,01,31,0.00
2005,05,30,01,32,0.00
2005,05,30,01,33,0.00
2005,05,30,01,34,0.00
2005,05,30,01,35,0.00
2005,05,30,01,36,0.00
2005,05,30,01,37,0.00
2005,05,30,01,38,0.00
2005,05,30,01,39,0.00
2005,05,30,01,40,0.00
2005,05,30,01,41,0.00
2005,05,30,01,42,0.00
2005,05,30,01,43,0.00
2005,05,30,01,44,0.00
2005,05,30,01,45,0.00
2005,05,30,01,46,0.00
2005,05,30,01,47,0.00
2005,05,30,01,48,0.00
2005,05,30,01,49,0.00
2005,05,30,01,50,0.00
2005,05,30,01,51,0.00
2005,05,30,01,52,0.00
2005,05,30,01,53,0.00
2005,05,30,01,54,0.00
2005,05,30,01,55,0.00
2005,05,30,01,56,0.00
2005,05,30,01,57,0.00
2005,05,30,01,58,0.00
2005,05,30,01,59,0.00
2005,05,30,02,00,0.00
2005,05,30,02,01,0.00
2005,05,30,02,02,0.00
2005,05,30,02,03,0.00
2005,05,30,02,04,0.00
2005,05,30,02,05,0.00
2005,05,30,02,06,0.00
2005,05,30,02,07,0.00
2005,05,30,02,08,0.00
2005,05,30,02,09,0.00
2005,05,30,02,10,0.00
2005,05,30,02,11,0.00
2005,05,30,02,12,0.00
2005,05,30,02,13,0.00
2005,05,30,02,14,0.00
2005,05,30,02,15,0.00
2005,05,30,02,16,0.00
2005,05,30,02,17,0.00
2005,05,30,02,18,0.00
2005,05,30,02,19,0.00
2005,05,30,02,20,0.00
2005,05,30,02,21,0.00
2005,05,30,02,22,0.00
2005,05,30,02,23,0.00
2005,05,30,02,24,0.00
2005,05,30,02,25,0.00
2005,05,30,02,26,0.00
2005,05,30,02,27,0.00
2005,05,30,02,28,0.00
2005,05,30,02,29,0.00
2005,05,30,02,30,0.00
2005,05,30,02,31,0.00
2005,05,30,02,32,0.00
2005,05,30,02,33,0.00
2005,05,30,02,34,0.00
2005,05,30,02,35,0.00
2005,05,30,02,36,0.00
2005,05,30,02,37,0.00
2005,05,30,02,38,0.00
2005,05,30,02,39,0.00
2005,05,30,02,40,0.00
2005,05,30,02,41,0.00
2005,05,30,02,42,0.00
2005,05,30,02,43,0.00
2005,05,30,02,44,0.00
2005,05,30,02,45,0.00
2005,05,30,02,46,0.00
2005,05,30,02,47,0.00
2005,05,30,02,48,0.00
2005,05,30,02,49,0.00
2005,05,30,02,50,0.00
2005,05,30,02,51,0.00
2005,05,30,02,52,0.00
2005,05,30,02,53,0.00
2005,05,30,02,54,0.00
2005,05,30,02,55,0.00
2005,05,30,02,56,0.00
2005,05,30,02,57,0.00
2005,05,30,02,58,0.00
2005,05,30,02,59,0.00
2005,05,30,03,00,0.00
2005,05,30,03,01,0.00
2005,05,30,03,02,0.00
2005,05,30,03,03,0.00
2005,05,30,03,04,0.00
2005,05,30,03,05,0.00
2005,05,30,03,06,0.00
2005,05,30,03,07,0.00
2005,05,30,03,08,0.00
2005,05,30,03,09,0.00
2005,05,30,03,10,0.00
2005,05,30,03,11,0.00
2005,05,30,03,12,0.00
2005,05,30,03,13,0.00
2005,05,30,03,14,0.00
2005,05,30,03,15,0.00
2005,05,30,03,16,0.00
2005,05,30,03,17,0.00
2005,05,30,03,18,0.00
2005,05,30,03,19,0.00
2005,05,30,03,20,0.00
2005,05,30,03,21,0.00
2005,05,30,03,22,0.00
2005,05,30,03,23,0.00
2005,05,30,03,24,0.00
2005,05,30,03,25,0.00
2005,05,30,03,26,0.00
2005,05,30,03,27,0.00
2005,05,30,03,28,0.00
2005,05,30,03,29,0.00
2005,05,30,03,30,0.00
2005,05,30,03,31,0.00
2005,05,30,03,32,0.00
2005,05,30,03,33,0.00
2005,05,30,03,34,0.00
2005,05,30,03,35,0.00
2005,05,30,03,36,0.00
2005,05,30,03,37,0.00
2005,05,30,03,38,0.00
2005,05,30,03,39,0.00
2005,05,30,03,40,0.00
2005,05,30,03,41,0.00
2005,05,30,03,42,0.00
2005,05,30,03,43,0.00
2005,05,30,03,44,0.00
2005,05,30,03,45,0.00
2005,05,30,03,46,0.00
2005,05,30,03,47,0.00
2005,05,30,03,48,0.00
2005,05,30,03,49,0.00
2005,05,30,03,50,0.00
2005,05,30,03,51,0.00
2005,05,30,03,52,0.00
2005,05,30,03,53,0.00
2005,05,30,03,54,0.00
2005,05,30,03,55,0.00
2005,05,30,03,56,0.00
2005,05,30,03,57,0.00
2005,05,30,03,58,0.00
2005,05,30,03,59,0.00
2005,05,30,04,00,0.00
2005,05,30,04,01,0.00
2005,05,30,04,02,0.00
2005,05,30,04,03,0.00
2005,05,30,04,04,0.00
2005,05,30,04,05,0.00
2005,05,30,04,06,0.00
2005,05,30,04,07,0.00
2005,05,30,04,08,0.00
2005,05,30,04,09,0.00
2005,05,30,04,10,0.00
2005,05,30,04,11,0.00
2005,05,30,04,12,0.00
2005,05,30,04,13,0.00
2005,05,30,04,14,0.00
2005,05,30,04,15,0.00
2005,05,30,04,16,0.00
2005,05,30,04,17,0.00
2005,05,30,04,18,0.00
2005,05,30,04,19,0.00
2005,05,30,04,20,0.00
2005,05,30,04,21,0.00
2005,05,30,04,22,0.00
2005,05,30,04,23,0.00
2005,05,30,04,24,0.00
2005,05,30,04,25,0.00
2005,05,30,04,26,0.00
2005,05,30,04,27,0.00
2005,05,30,04,28,0.00
2005,05,30,04,29,0.00
2005,05,30,04,30,0.00
2005,05,30,04,31,0.00
2005,05,30,04,32,0.00
2005,05,30,04,33,0.00
2005,05,30,04,34,0.00
2005,05,30,04,35,0.00
2005,05,30,04,36,0.00
2005,05,30,04,37,0.00
2005,05,30,04,38,0.00
2005,05,30,04,39,0.00
2005,05,30,04,40,0.00
2005,05,30,04,41,0.00
2005,05,30,04,42,0.00
2005,05,30,04,43,0.00
2005,05,30,04,44,0.00
2005,05,30,04,45,0.00
2005,05,30,04,46,0.00
2005,05,30,04,47,0.00
2005,05,30,04,48,0.00
2005,05,30,04,49,0.00
2005,05,30,04,50,0.00
2005,05,30,04,51,0.00
2005,05,30,04,52,0.00
2005,05,30,04,53,0.00
2005,05,30,04,54,0.00
2005,05,30,04,55,0.00
2005,05,30,04,56,0.00
2005,05,30,04,57,0.00
2005,05,30,04,58,0.00
2005,05,30,04,59,0.00
2005,05,30,05,00,0.00
2005,05,30,05,01,0.00
2005,05,30,05,02,0.00
2005,05,30,05,03,0.00
2005,05,30,05,04,0.00
2005,05,30,05,05,0.00
2005,05,30,05,06,0.00
2005,05,30,05,07,0.00
2005,05,30,05,08,0.00
2005,05,30,05,09,0.00
2005,05,30,05,10,0.00
2005,05,30,05,11,0.00
2005,05,30,05,12,0.00
2005,05,30,05,13,2.50
2005,05,30,05,14,5.00
2005,05,30,05,15,5.00
2005,05,30,05,16,6.90
2005,05,30,05,17,7.00
2005,05,30,05,18,7.00
2005,05,30,05,19,7.00
2005,05,30,05,20,7.00
2005,05,30,05,21,7.00
2005,05,30,05,22,7.00
2005,05,30,05,23,7.50
2005,05,30,05,24,9.00
2005,05,30,05,25,10.10
2005,05,30,05,26,11.00
2005,05,30,05,27,11.90
2005,05,30,05,28,12.00
2005,05,30,05,29,12.00
2005,05,30,05,30,12.00
2005,05,30,05,31,12.00
2005,05,30,05,32,12.00
2005,05,30,05,33,12.00
2005,05,30,05,34,12.00
2005,05,30,05,35,12.00
2005,05,30,05,36,12.90
2005,05,30,05,37,14.00
2005,05,30,05,38,14.00
2005,05,30,05,39,14.00
2005,05,30,05,40,14.40
2005,05,30,05,41,16.00
2005,05,30,05,42,16.00
2005,05,30,05,43,16.00
2005,05,30,05,44,16.00
2005,05,30,05,45,17.90
2005,05,30,05,46,18.00
2005,05,30,05,47,18.40
2005,05,30,05,48,20.00
2005,05,30,05,49,21.00
2005,05,30,05,50,21.00
2005,05,30,05,51,22.90
2005,05,30,05,52,23.40
2005,05,30,05,53,25.00
2005,05,30,05,54,25.00
2005,05,30,05,55,25.00
2005,05,30,05,56,25.00
2005,05,30,05,57,24.80
2005,05,30,05,58,23.00
2005,05,30,05,59,23.00
2005,05,30,06,00,23.00
2005,05,30,06,01,23.00
2005,05,30,06,02,23.00
2005,05,30,06,03,23.20
2005,05,30,06,04,25.00
2005,05,30,06,05,25.00
2005,05,30,06,06,25.60
2005,05,30,06,07,26.00
2005,05,30,06,08,26.00
2005,05,30,06,09,30.40
2005,05,30,06,10,32.70
2005,05,30,06,11,30.80
2005,05,30,06,12,31.50
2005,05,30,06,13,32.80
2005,05,30,06,14,33.00
2005,05,30,06,15,35.00
2005,05,30,06,16,35.70
2005,05,30,06,17,37.90
2005,05,30,06,18,39.00
2005,05,30,06,19,41.20
2005,05,30,06,20,43.80
2005,05,30,06,21,44.00
2005,05,30,06,22,44.00
2005,05,30,06,23,43.00
2005,05,30,06,24,42.00
2005,05,30,06,25,42.00
2005,05,30,06,26,40.10
2005,05,30,06,27,40.00
2005,05,30,06,28,40.80
2005,05,30,06,29,42.00
2005,05,30,06,30,42.00
2005,05,30,06,31,45.30
2005,05,30,06,32,47.00
2005,05,30,06,33,47.50
2005,05,30,06,34,49.80
2005,05,30,06,35,51.00
2005,05,30,06,36,51.00
2005,05,30,06,37,55.10
2005,05,30,06,38,55.80
2005,05,30,06,39,54.00
2005,05,30,06,40,54.00
2005,05,30,06,41,54.00
2005,05,30,06,42,55.50
2005,05,30,06,43,56.00
2005,05,30,06,44,57.90
2005,05,30,06,45,58.00
2005,05,30,06,46,58.80
2005,05,30,06,47,60.00
2005,05,30,06,48,61.50
2005,05,30,06,49,62.00
2005,05,30,06,50,62.00
2005,05,30,06,51,62.30
2005,05,30,06,52,63.00
2005,05,30,06,53,63.00
2005,05,30,06,54,63.00
2005,05,30,06,55,63.00
2005,05,30,06,56,63.00
2005,05,30,06,57,63.00
2005,05,30,06,58,63.90
2005,05,30,06,59,65.00
2005,05,30,07,00,66.40
2005,05,30,07,01,69.00
2005,05,30,07,02,72.00
2005,05,30,07,03,75.10
2005,05,30,07,04,89.50
2005,05,30,07,05,115.20
2005,05,30,07,06,130.70
2005,05,30,07,07,144.40
2005,05,30,07,08,170.20
2005,05,30,07,09,186.20
2005,05,30,07,10,177.50
2005,05,30,07,11,157.00
2005,05,30,07,12,137.70
2005,05,30,07,13,158.40
2005,05,30,07,14,204.70
2005,05,30,07,15,214.80
2005,05,30,07,16,215.00
2005,05,30,07,17,213.30
2005,05,30,07,18,201.90
2005,05,30,07,19,193.30
2005,05,30,07,20,201.00
2005,05,30,07,21,216.00
2005,05,30,07,22,188.40
2005,05,30,07,23,180.90
2005,05,30,07,24,172.80
2005,05,30,07,25,133.20
2005,05,30,07,26,129.10
2005,05,30,07,27,122.00
2005,05,30,07,28,105.20
2005,05,30,07,29,99.10
2005,05,30,07,30,111.80
2005,05,30,07,31,116.70
2005,05,30,07,32,148.00
2005,05,30,07,33,203.20
2005,05,30,07,34,254.50
2005,05,30,07,35,270.40
2005,05,30,07,36,267.70
2005,05,30,07,37,259.10
2005,05,30,07,38,274.70
2005,05,30,07,39,287.50
2005,05,30,07,40,288.00
2005,05,30,07,41,289.60
2005,05,30,07,42,291.90
2005,05,30,07,43,295.30
2005,05,30,07,44,298.30
2005,05,30,07,45,303.40
2005,05,30,07,46,307.90
2005,05,30,07,47,313.90
2005,05,30,07,48,316.20
2005,05,30,07,49,322.20
2005,05,30,07,50,324.50
2005,05,30,07,51,328.60
2005,05,30,07,52,329.30
2005,05,30,07,53,336.40
2005,05,30,07,54,342.80
2005,05,30,07,55,345.00
2005,05,30,07,56,354.00
2005,05,30,07,57,357.00
2005,05,30,07,58,355.60
2005,05,30,07,59,347.20
2005,05,30,08,00,346.50
2005,05,30,08,01,352.30
2005,05,30,08,02,353.90
2005,05,30,08,03,357.30
2005,05,30,08,04,359.70
2005,05,30,08,05,361.70
2005,05,30,08,06,365.80
2005,05,30,08,07,366.00
2005,05,30,08,08,369.30
2005,05,30,08,09,376.30
2005,05,30,08,10,379.40
2005,05,30,08,11,380.80
2005,05,30,08,12,385.30
2005,05,30,08,13,387.30
2005,05,30,08,14,390.60
2005,05,30,08,15,394.00
2005,05,30,08,16,399.20
2005,05,30,08,17,402.80
2005,05,30,08,18,406.70
2005,05,30,08,19,410.30
2005,05,30,08,20,411.00
2005,05,30,08,21,412.30
2005,05,30,08,22,414.60
2005,05,30,08,23,416.80
2005,05,30,08,24,417.00
2005,05,30,08,25,418.70
2005,05,30,08,26,422.00
2005,05,30,08,27,423.90
2005,05,30,08,28,428.20
2005,05,30,08,29,429.20
2005,05,30,08,30,434.00
2005,05,30,08,31,435.70
2005,05,30,08,32,442.50
2005,05,30,08,33,452.00
2005,05,30,08,34,455.00
2005,05,30,08,35,455.00
2005,05,30,08,36,455.00
2005,05,30,08,37,467.50
2005,05,30,08,38,490.80
2005,05,30,08,39,500.30
2005,05,30,08,40,505.50
2005,05,30,08,41,511.80
2005,05,30,08,42,513.50
2005,05,30,08,43,515.00
2005,05,30,08,44,474.60
2005,05,30,08,45,432.70
2005,05,30,08,46,360.40
2005,05,30,08,47,346.50
2005,05,30,08,48,375.60
2005,05,30,08,49,322.00
2005,05,30,08,50,394.70
2005,05,30,08,51,442.10
2005,05,30,08,52,394.90
2005,05,30,08,53,482.00
2005,05,30,08,54,482.00
2005,05,30,08,55,410.60
2005,05,30,08,56,377.00
2005,05,30,08,57,413.00
2005,05,30,08,58,413.00
2005,05,30,08,59,389.00
2005,05,30,09,00,287.00
2005,05,30,09,01,287.00
2005,05,30,09,02,293.40
2005,05,30,09,03,273.70
2005,05,30,09,04,257.30
2005,05,30,09,05,289.00
2005,05,30,09,06,325.00
2005,05,30,09,07,394.80
2005,05,30,09,08,516.70
2005,05,30,09,09,541.00
2005,05,30,09,10,414.90
2005,05,30,09,11,403.80
2005,05,30,09,12,475.50
2005,05,30,09,13,501.00
2005,05,30,09,14,619.00
2005,05,30,09,15,690.50
2005,05,30,09,16,702.70
2005,05,30,09,17,707.20
2005,05,30,09,18,703.10
2005,05,30,09,19,655.10
2005,05,30,09,20,578.70
2005,05,30,09,21,530.00
2005,05,30,09,22,536.50
2005,05,30,09,23,673.40
2005,05,30,09,24,668.30
2005,05,30,09,25,685.80
2005,05,30,09,26,629.70
2005,05,30,09,27,579.70
2005,05,30,09,28,649.80
2005,05,30,09,29,696.90
2005,05,30,09,30,678.80
2005,05,30,09,31,632.50
2005,05,30,09,32,662.20
2005,05,30,09,33,670.70
2005,05,30,09,34,710.00
2005,05,30,09,35,713.80
2005,05,30,09,36,729.00
2005,05,30,09,37,747.10
2005,05,30,09,38,704.50
2005,05,30,09,39,749.50
2005,05,30,09,40,673.80
2005,05,30,09,41,648.50
2005,05,30,09,42,666.10
2005,05,30,09,43,687.00
2005,05,30,09,44,493.00
2005,05,30,09,45,431.30
2005,05,30,09,46,334.40
2005,05,30,09,47,343.20
2005,05,30,09,48,353.00
2005,05,30,09,49,381.00
2005,05,30,09,50,373.60
2005,05,30,09,51,383.30
2005,05,30,09,52,380.00
2005,05,30,09,53,380.00
2005,05,30,09,54,380.00
2005,05,30,09,55,380.00
2005,05,30,09,56,581.90
2005,05,30,09,57,635.00
2005,05,30,09,58,653.90
2005,05,30,09,59,721.70
2005,05,30,10,00,721.00
2005,05,30,10,01,721.00
2005,05,30,10,02,622.20
2005,05,30,10,03,678.40
2005,05,30,10,04,715.10
2005,05,30,10,05,809.00
2005,05,30,10,06,607.10
2005,05,30,10,07,412.50
2005,05,30,10,08,412.30
2005,05,30,10,09,410.00
2005,05,30,10,10,542.90
2005,05,30,10,11,875.00
2005,05,30,10,12,875.00
2005,05,30,10,13,875.00
2005,05,30,10,14,866.40
2005,05,30,10,15,865.00
2005,05,30,10,16,739.90
2005,05,30,10,17,442.70
2005,05,30,10,18,482.90
2005,05,30,10,19,524.90
2005,05,30,10,20,590.10
2005,05,30,10,21,694.00
2005,05,30,10,22,618.00
2005,05,30,10,23,455.00
2005,05,30,10,24,486.20
2005,05,30,10,25,566.60
2005,05,30,10,26,596.40
2005,05,30,10,27,856.00
2005,05,30,10,28,856.00
2005,05,30,10,29,707.50
2005,05,30,10,30,559.00
2005,05,30,10,31,559.00
2005,05,30,10,32,551.60
2005,05,30,10,33,397.00
2005,05,30,10,34,397.00
2005,05,30,10,35,397.00
2005,05,30,10,36,352.70
2005,05,30,10,37,323.80
2005,05,30,10,38,317.70
2005,05,30,10,39,313.00
2005,05,30,10,40,320.90
2005,05,30,10,41,352.00
2005,05,30,10,42,367.00
2005,05,30,10,43,621.20
2005,05,30,10,44,687.70
2005,05,30,10,45,939.10
2005,05,30,10,46,997.40
2005,05,30,10,47,996.40
2005,05,30,10,48,981.80
2005,05,30,10,49,976.00
2005,05,30,10,50,444.20
2005,05,30,10,51,527.20
2005,05,30,10,52,837.10
2005,05,30,10,53,846.00
2005,05,30,10,54,801.00
2005,05,30,10,55,780.00
2005,05,30,10,56,780.00
2005,05,30,10,57,780.00
2005,05,30,10,58,639.60
2005,05,30,10,59,492.00
2005,05,30,11,00,471.10
2005,05,30,11,01,458.80
2005,05,30,11,02,459.00
2005,05,30,11,03,646.20
2005,05,30,11,04,1076.40
2005,05,30,11,05,1081.70
2005,05,30,11,06,1083.00
2005,05,30,11,07,1083.00
2005,05,30,11,08,998.20
2005,05,30,11,09,693.00
2005,05,30,11,10,693.00
2005,05,30,11,11,537.00
2005,05,30,11,12,493.40
2005,05,30,11,13,503.00
2005,05,30,11,14,631.70
2005,05,30,11,15,1095.00
2005,05,30,11,16,847.00
2005,05,30,11,17,599.00
2005,05,30,11,18,599.00
2005,05,30,11,19,517.70
2005,05,30,11,20,514.00
2005,05,30,11,21,550.00
2005,05,30,11,22,550.00
2005,05,30,11,23,505.70
2005,05,30,11,24,485.00
2005,05,30,11,25,498.70
2005,05,30,11,26,504.20
2005,05,30,11,27,508.00
2005,05,30,11,28,508.00
2005,05,30,11,29,526.90
2005,05,30,11,30,600.90
2005,05,30,11,31,660.40
2005,05,30,11,32,969.60
2005,05,30,11,33,977.00
2005,05,30,11,34,977.00
2005,05,30,11,35,815.10
2005,05,30,11,36,771.00
2005,05,30,11,37,773.00
2005,05,30,11,38,769.90
2005,05,30,11,39,761.00
2005,05,30,11,40,652.00
2005,05,30,11,41,604.20
2005,05,30,11,42,612.00
2005,05,30,11,43,612.00
2005,05,30,11,44,612.00
2005,05,30,11,45,545.50
2005,05,30,11,46,471.70
2005,05,30,11,47,541.40
2005,05,30,11,48,629.20
2005,05,30,11,49,636.00
2005,05,30,11,50,623.80
2005,05,30,11,51,589.50
2005,05,30,11,52,578.00
2005,05,30,11,53,578.00
2005,05,30,11,54,825.40
2005,05,30,11,55,837.00
2005,05,30,11,56,837.00
2005,05,30,11,57,837.00
2005,05,30,11,58,837.00
2005,05,30,11,59,729.60
2005,05,30,12,00,691.70
2005,05,30,12,01,691.00
2005,05,30,12,02,758.30
2005,05,30,12,03,867.70
2005,05,30,12,04,872.00
2005,05,30,12,07,552.00
2005,05,30,12,08,570.30
2005,05,30,12,09,512.00
2005,05,30,12,10,512.00
2005,05,30,12,12,465.70
2005,05,30,12,13,485.60
2005,05,30,12,14,541.00
2005,05,30,12,15,541.00
2005,05,30,12,16,541.00
2005,05,30,12,17,601.00
2005,05,30,12,18,573.00
2005,05,30,12,19,542.80
2005,05,30,12,20,548.00
2005,05,30,12,21,548.00
2005,05,30,12,22,548.00
2005,05,30,12,23,548.00
2005,05,30,12,24,548.00
2005,05,30,12,25,558.20
2005,05,30,12,26,627.80
2005,05,30,12,27,711.20
2005,05,30,12,28,692.20
2005,05,30,12,29,686.10
2005,05,30,12,30,644.70
2005,05,30,12,31,682.20
2005,05,30,12,32,706.80
2005,05,30,12,33,757.70
2005,05,30,12,34,786.90
2005,05,30,12,35,776.60
2005,05,30,12,36,712.00
2005,05,30,12,37,787.00
2005,05,30,12,38,916.00
2005,05,30,12,39,932.80
2005,05,30,12,40,930.70
2005,05,30,12,41,916.50
2005,05,30,12,42,886.90
2005,05,30,12,43,782.00
2005,05,30,12,44,704.50
2005,05,30,12,45,640.00
2005,05,30,12,46,873.80
2005,05,30,12,47,950.90
2005,05,30,12,48,935.00
2005,05,30,12,49,850.30
2005,05,30,12,50,724.30
2005,05,30,12,51,721.00
2005,05,30,12,52,727.00
2005,05,30,12,53,738.00
2005,05,30,12,54,730.70
2005,05,30,12,55,682.70
2005,05,30,12,56,620.60
2005,05,30,12,57,598.70
2005,05,30,12,58,599.00
2005,05,30,12,59,741.90
2005,05,30,13,00,733.80
2005,05,30,13,01,762.10
2005,05,30,13,02,780.00
2005,05,30,13,03,780.00
2005,05,30,13,04,717.40
2005,05,30,13,05,729.50
2005,05,30,13,06,829.70
2005,05,30,13,07,833.20
2005,05,30,13,08,841.60
2005,05,30,13,09,848.10
2005,05,30,13,10,780.00
2005,05,30,13,11,752.40
2005,05,30,13,12,677.90
2005,05,30,13,13,728.50
2005,05,30,13,14,802.50
2005,05,30,13,15,857.80
2005,05,30,13,16,872.90
2005,05,30,13,17,832.50
2005,05,30,13,18,782.00
2005,05,30,13,19,723.10
2005,05,30,13,20,789.20
2005,05,30,13,21,852.10
2005,05,30,13,22,861.00
2005,05,30,13,23,804.90
2005,05,30,13,24,593.60
2005,05,30,13,25,572.50
2005,05,30,13,26,575.00
2005,05,30,13,27,589.10
2005,05,30,13,28,553.80
2005,05,30,13,29,533.00
2005,05,30,13,30,482.30
2005,05,30,13,31,486.30
2005,05,30,13,32,482.70
2005,05,30,13,33,477.20
2005,05,30,13,34,482.50
2005,05,30,13,35,454.00
2005,05,30,13,36,454.00
2005,05,30,13,37,458.10
2005,05,30,13,38,487.60
2005,05,30,13,39,497.00
2005,05,30,13,40,531.70
2005,05,30,13,41,766.00
2005,05,30,13,42,788.70
2005,05,30,13,43,858.60
2005,05,30,13,44,841.20
2005,05,30,13,45,743.30
2005,05,30,13,46,682.80
2005,05,30,13,47,670.00
2005,05,30,13,48,670.30
2005,05,30,13,49,634.70
2005,05,30,13,50,558.70
2005,05,30,13,51,462.60
2005,05,30,13,52,461.80
2005,05,30,13,53,469.60
2005,05,30,13,54,490.40
2005,05,30,13,55,529.00
2005,05,30,13,56,529.00
2005,05,30,13,57,550.20
2005,05,30,13,58,602.50
2005,05,30,13,59,603.40
2005,05,30,14,00,644.50
2005,05,30,14,01,675.00
2005,05,30,14,02,576.80
2005,05,30,14,03,550.10
2005,05,30,14,04,457.00
2005,05,30,14,05,554.80
2005,05,30,14,06,696.00
2005,05,30,14,07,696.00
2005,05,30,14,08,962.90
2005,05,30,14,09,1002.00
2005,05,30,14,10,973.80
2005,05,30,14,11,972.30
2005,05,30,14,12,957.50
2005,05,30,14,13,948.20
2005,05,30,14,14,946.00
2005,05,30,14,15,854.00
2005,05,30,14,16,804.30
2005,05,30,14,17,792.90
2005,05,30,14,18,809.90
2005,05,30,14,19,802.30
2005,05,30,14,20,795.00
2005,05,30,14,21,810.70
2005,05,30,14,22,894.50
2005,05,30,14,23,913.50
2005,05,30,14,24,914.90
2005,05,30,14,25,911.30
2005,05,30,14,26,907.40
2005,05,30,14,27,902.10
2005,05,30,14,28,880.30
2005,05,30,14,29,853.00
2005,05,30,14,30,873.10
2005,05,30,14,31,886.00
2005,05,30,14,32,884.90
2005,05,30,14,33,860.50
2005,05,30,14,34,865.40
2005,05,30,14,35,870.00
2005,05,30,14,36,870.00
2005,05,30,14,37,867.70
2005,05,30,14,38,863.10
2005,05,30,14,39,860.80
2005,05,30,14,40,859.30
2005,05,30,14,41,855.80
2005,05,30,14,42,852.00
2005,05,30,14,43,851.00
2005,05,30,14,44,848.90
2005,05,30,14,45,845.60
2005,05,30,14,46,844.00
2005,05,30,14,47,842.90
2005,05,30,14,48,840.70
2005,05,30,14,49,838.40
2005,05,30,14,50,837.90
2005,05,30,14,51,836.00
2005,05,30,14,52,833.00
2005,05,30,14,53,831.40
2005,05,30,14,54,830.70
2005,05,30,14,55,830.20
2005,05,30,14,56,828.10
2005,05,30,14,57,826.90
2005,05,30,14,58,823.60
2005,05,30,14,59,821.80
2005,05,30,15,00,819.60
2005,05,30,15,01,819.00
2005,05,30,15,02,816.00
2005,05,30,15,03,814.70
2005,05,30,15,04,812.00
2005,05,30,15,05,810.20
2005,05,30,15,06,807.50
2005,05,30,15,07,808.70
2005,05,30,15,08,806.70
2005,05,30,15,09,804.40
2005,05,30,15,10,802.50
2005,05,30,15,11,800.70
2005,05,30,15,12,797.00
2005,05,30,15,13,795.90
2005,05,30,15,14,793.00
2005,05,30,15,15,793.00
2005,05,30,15,16,790.60
2005,05,30,15,17,788.00
2005,05,30,15,18,786.40
2005,05,30,15,19,787.80
2005,05,30,15,20,786.00
2005,05,30,15,21,785.30
2005,05,30,15,22,782.00
2005,05,30,15,23,780.00
2005,05,30,15,24,777.70
2005,05,30,15,25,776.60
2005,05,30,15,26,773.00
2005,05,30,15,27,771.80
2005,05,30,15,28,769.00
2005,05,30,15,29,768.00
2005,05,30,15,30,766.40
2005,05,30,15,31,765.90
2005,05,30,15,32,764.10
2005,05,30,15,33,761.00
2005,05,30,15,34,759.90
2005,05,30,15,35,758.30
2005,05,30,15,36,758.00
2005,05,30,15,37,756.10
2005,05,30,15,38,755.50
2005,05,30,15,39,754.00
2005,05,30,15,40,751.20
2005,05,30,15,41,747.60
2005,05,30,15,42,744.40
2005,05,30,15,43,744.80
2005,05,30,15,44,742.70
2005,05,30,15,45,739.10
2005,05,30,15,46,737.40
2005,05,30,15,47,737.00
2005,05,30,15,48,735.20
2005,05,30,15,49,732.70
2005,05,30,15,50,730.30
2005,05,30,15,51,729.00
2005,05,30,15,52,728.40
2005,05,30,15,53,726.50
2005,05,30,15,54,724.00
2005,05,30,15,55,721.20
2005,05,30,15,56,722.00
2005,05,30,15,57,719.60
2005,05,30,15,58,715.10
2005,05,30,15,59,712.40
2005,05,30,16,00,710.30
2005,05,30,16,01,711.00
2005,05,30,16,02,706.30
2005,05,30,16,03,704.00
2005,05,30,16,04,703.00
2005,05,30,16,05,700.50
2005,05,30,16,06,698.10
2005,05,30,16,07,697.10
2005,05,30,16,08,693.60
2005,05,30,16,09,692.00
2005,05,30,16,10,691.00
2005,05,30,16,11,689.40
2005,05,30,16,12,688.70
2005,05,30,16,13,686.20
2005,05,30,16,14,684.00
2005,05,30,16,15,681.70
2005,05,30,16,16,679.30
2005,05,30,16,17,677.40
2005,05,30,16,18,672.90
2005,05,30,16,19,670.70
2005,05,30,16,20,670.40
2005,05,30,16,21,668.10
2005,05,30,16,22,664.60
2005,05,30,16,23,664.00
2005,05,30,16,24,662.70
2005,05,30,16,25,659.70
2005,05,30,16,26,657.00
2005,05,30,16,27,657.00
2005,05,30,16,28,654.70
2005,05,30,16,29,654.00
2005,05,30,16,30,636.00
2005,05,30,16,31,636.00
2005,05,30,16,32,632.30
2005,05,30,16,33,626.80
2005,05,30,16,34,628.20
2005,05,30,16,35,625.70
2005,05,30,16,36,617.90
2005,05,30,16,37,624.10
2005,05,30,16,38,626.00
2005,05,30,16,39,625.20
2005,05,30,16,40,626.00
2005,05,30,16,41,626.00
2005,05,30,16,42,625.60
2005,05,30,16,43,624.00
2005,05,30,16,44,623.00
2005,05,30,16,45,621.30
2005,05,30,16,46,616.30
2005,05,30,16,47,616.70
2005,05,30,16,48,614.50
2005,05,30,16,49,611.80
2005,05,30,16,50,606.30
2005,05,30,16,51,605.10
2005,05,30,16,52,601.70
2005,05,30,16,53,598.50
2005,05,30,16,54,592.00
2005,05,30,16,55,584.30
2005,05,30,16,56,542.10
2005,05,30,16,57,565.10
2005,05,30,16,58,589.90
2005,05,30,16,59,587.50
2005,05,30,17,00,588.10
2005,05,30,17,01,581.70
2005,05,30,17,02,578.90
2005,05,30,17,03,537.50
2005,05,30,17,04,568.40
2005,05,30,17,05,573.80
2005,05,30,17,06,558.40
2005,05,30,17,07,532.30
2005,05,30,17,08,533.10
2005,05,30,17,09,533.60
2005,05,30,17,10,533.20
2005,05,30,17,11,540.30
2005,05,30,17,12,499.20
2005,05,30,17,13,465.90
2005,05,30,17,14,468.40
2005,05,30,17,15,461.00
2005,05,30,17,16,467.60
2005,05,30,17,17,475.60
2005,05,30,17,18,502.70
2005,05,30,17,19,465.50
2005,05,30,17,20,451.00
2005,05,30,17,21,474.00